When you browse on this site, cookies collect data to enhance your experience and personalize the content and advertising you see.
Visit our Privacy Policy to learn more. By continuing to use the site, you agree to this use of cookies and data.
  • In Portugal
  • List of Countries
  • For 7 days
  • Water Temperature
  • Satellite Maps
  • Weather Map
  • Weather Widgets
  • user-avatar
    Login

    Hourly Weather Miyadzaki

    Today, 22 January, Tuesday

    Time Temperature Precipitation Wind Pressure Humidity
    00:00 +3°C° 0 mm 3 mps 756 mmHg 80%
    01:00 +3°C° 0 mm 3 mps 756 mmHg 80%
    02:00 +3°C° 0 mm 3 mps 755 mmHg 81%
    03:00 +3°C° 0 mm 4 mps 755 mmHg 82%
    04:00 +3°C° 0 mm 4 mps 755 mmHg 82%
    05:00 +3°C° 0 mm 4 mps 755 mmHg 83%
    06:00 +3°C° 0 mm 4 mps 755 mmHg 83%
    07:00 +4°C° 0 mm 3 mps 755 mmHg 79%
    08:00 +7°C° 0 mm 3 mps 755 mmHg 74%
    09:00 +8°C° 0 mm 3 mps 755 mmHg 68%
    10:00 +9°C° 0 mm 3 mps 755 mmHg 61%
    11:00 +11°C° 0 mm 3 mps 755 mmHg 53%
    12:00 +13°C° 0 mm 3 mps 755 mmHg 46%
    13:00 +14°C° 0 mm 2 mps 755 mmHg 45%
    14:00 +14°C° 0 mm 2 mps 755 mmHg 44%
    15:00 +14°C° 0 mm 2 mps 754 mmHg 43%
    16:00 +12°C° 0 mm 3 mps 755 mmHg 48%
    17:00 +10°C° 0 mm 3 mps 755 mmHg 53%
    18:00 +9°C° 0 mm 3 mps 755 mmHg 58%
    19:00 +8°C° 0 mm 3 mps 755 mmHg 63%
    20:00 +7°C° 0 mm 3 mps 755 mmHg 68%
    21:00 +5°C° 0 mm 3 mps 755 mmHg 72%
    22:00 +5°C° 0 mm 3 mps 755 mmHg 73%
    23:00 +4°C° 0 mm 3 mps 755 mmHg 75%

    Tomorrow, 23 January, Wednesday

    Time Temperature Precipitation Wind Pressure Humidity
    00:00 +4°C° 0 mm 3 mps 756 mmHg 76%
    01:00 +4°C° 0 mm 3 mps 755 mmHg 76%
    02:00 +3°C° 0 mm 3 mps 755 mmHg 75%
    03:00 +3°C° 0 mm 3 mps 755 mmHg 75%
    04:00 +3°C° 0 mm 3 mps 755 mmHg 77%
    05:00 +3°C° 0 mm 3 mps 755 mmHg 79%
    06:00 +3°C° 0 mm 3 mps 756 mmHg 80%
    07:00 +4°C° 0 mm 3 mps 756 mmHg 76%
    08:00 +7°C° 0 mm 3 mps 756 mmHg 73%
    09:00 +8°C° 0 mm 3 mps 756 mmHg 69%
    10:00 +10°C° 0 mm 3 mps 756 mmHg 63%
    11:00 +12°C° 0 mm 3 mps 756 mmHg 57%
    12:00 +14°C° 0 mm 4 mps 756 mmHg 51%
    13:00 +14°C° 0 mm 4 mps 756 mmHg 50%
    14:00 +14°C° 0 mm 5 mps 755 mmHg 49%
    15:00 +14°C° 0 mm 5 mps 755 mmHg 49%
    16:00 +12°C° 0 mm 5 mps 755 mmHg 55%
    17:00 +10°C° 0 mm 5 mps 755 mmHg 60%
    18:00 +8°C° 0 mm 4 mps 755 mmHg 66%
    19:00 +8°C° 0 mm 4 mps 756 mmHg 68%
    20:00 +7°C° 0 mm 4 mps 756 mmHg 71%
    21:00 +6°C° 0 mm 4 mps 756 mmHg 74%
    22:00 +6°C° 0 mm 4 mps 756 mmHg 76%
    23:00 +6°C° 0 mm 4 mps 756 mmHg 78%

    Day after tomorrow, 24 January, Thursday

    Time Temperature Precipitation Wind Pressure Humidity
    00:00 +5°C° 0 mm 3 mps 756 mmHg 80%
    01:00 +5°C° 0 mm 3 mps 756 mmHg 82%
    02:00 +5°C° 0 mm 3 mps 756 mmHg 84%
    03:00 +5°C° 0 mm 3 mps 756 mmHg 86%
    04:00 +4°C° 0 mm 3 mps 756 mmHg 86%
    05:00 +4°C° 0 mm 3 mps 756 mmHg 87%
    06:00 +4°C° 0 mm 3 mps 756 mmHg 87%
    07:00 +6°C° 0 mm 2 mps 756 mmHg 82%
    08:00 +7°C° 0 mm 2 mps 757 mmHg 77%
    09:00 +9°C° 0 mm 2 mps 757 mmHg 72%
    10:00 +10°C° 0 mm 2 mps 757 mmHg 63%
    11:00 +13°C° 0 mm 2 mps 757 mmHg 54%
    12:00 +15°C° 0 mm 2 mps 757 mmHg 45%
    13:00 +16°C° 0 mm 2 mps 756 mmHg 44%
    14:00 +16°C° 0 mm 2 mps 756 mmHg 43%
    15:00 +16°C° 0 mm 2 mps 756 mmHg 42%
    16:00 +15°C° 0 mm 2 mps 756 mmHg 48%
    17:00 +13°C° 0 mm 2 mps 756 mmHg 54%
    18:00 +10°C° 0 mm 2 mps 756 mmHg 60%
    19:00 +9°C° 0 mm 2 mps 757 mmHg 65%
    20:00 +8°C° 0 mm 2 mps 757 mmHg 69%
    21:00 +7°C° 0 mm 2 mps 757 mmHg 73%
    22:00 +7°C° 0 mm 2 mps 757 mmHg 73%
    23:00 +6°C° 0 mm 2 mps 757 mmHg 73%

    25 January, Friday

    Time Temperature Precipitation Wind Pressure Humidity
    00:00 +6°C° 0 mm 2 mps 757 mmHg 73%
    01:00 +5°C° 0 mm 2 mps 757 mmHg 72%
    02:00 +5°C° 0 mm 2 mps 757 mmHg 70%
    03:00 +5°C° 0 mm 2 mps 757 mmHg 68%
    04:00 +5°C° 0 mm 2 mps 757 mmHg 68%
    05:00 +4°C° 0 mm 2 mps 756 mmHg 68%
    06:00 +4°C° 0 mm 2 mps 756 mmHg 68%
    07:00 +5°C° 0 mm 2 mps 757 mmHg 65%
    08:00 +6°C° 0 mm 2 mps 757 mmHg 62%
    09:00 +8°C° 0 mm 2 mps 757 mmHg 58%
    10:00 +10°C° 0 mm 3 mps 757 mmHg 54%
    11:00 +11°C° 0 mm 3 mps 757 mmHg 49%
    12:00 +13°C° 0 mm 3 mps 756 mmHg 45%
    13:00 +13°C° 0 mm 4 mps 756 mmHg 45%
    14:00 +13°C° 0 mm 5 mps 755 mmHg 45%
    15:00 +14°C° 0 mm 6 mps 754 mmHg 45%
    16:00 +11°C° 0 mm 6 mps 755 mmHg 49%
    17:00 +9°C° 0 mm 6 mps 755 mmHg 54%
    18:00 +7°C° 0 mm 5 mps 755 mmHg 58%
    19:00 +7°C° 0 mm 5 mps 755 mmHg 61%
    20:00 +5°C° 0 mm 6 mps 755 mmHg 65%
    21:00 +4°C° 0 mm 6 mps 756 mmHg 68%
    22:00 +5°C° 0 mm 5 mps 756 mmHg 69%
    23:00 +5°C° 0 mm 5 mps 755 mmHg 70%

    26 January, Saturday

    Time Temperature Precipitation Wind Pressure Humidity
    00:00 +3°C° 0 mm 5 mps 755 mmHg 72%
    01:00 +3°C° 0 mm 5 mps 755 mmHg 72%
    02:00 +3°C° 0 mm 5 mps 755 mmHg 73%
    03:00 +3°C° 0 mm 5 mps 755 mmHg 73%
    04:00 +2°C° 0 mm 5 mps 755 mmHg 72%
    05:00 +2°C° 0 mm 5 mps 755 mmHg 71%
    06:00 +2°C° 0 mm 5 mps 755 mmHg 70%
    07:00 +2°C° 0 mm 6 mps 755 mmHg 65%
    08:00 +2°C° 0 mm 6 mps 755 mmHg 59%
    09:00 +3°C° 0 mm 6 mps 755 mmHg 54%
    10:00 +4°C° 0 mm 6 mps 755 mmHg 50%
    11:00 +5°C° 0 mm 6 mps 755 mmHg 45%
    12:00 +6°C° 0 mm 7 mps 755 mmHg 40%
    13:00 +8°C° 0 mm 7 mps 755 mmHg 40%
    14:00 +8°C° 0 mm 7 mps 755 mmHg 39%
    15:00 +8°C° 0 mm 7 mps 754 mmHg 39%
    16:00 +5°C° 0 mm 6 mps 755 mmHg 44%
    17:00 +4°C° 0 mm 6 mps 756 mmHg 49%
    18:00 +3°C° 0 mm 6 mps 756 mmHg 55%
    19:00 +2°C° 0 mm 5 mps 757 mmHg 55%
    20:00 +1°C° 0 mm 5 mps 757 mmHg 56%
    21:00 0°C° 0 mm 5 mps 758 mmHg 57%
    22:00 0°C° 0 mm 4 mps 758 mmHg 58%
    23:00 0°C° 0 mm 4 mps 759 mmHg 59%

    27 January, Sunday

    Time Temperature Precipitation Wind Pressure Humidity
    00:00 -1°C° 0 mm 4 mps 759 mmHg 60%
    01:00 -1°C° 0 mm 4 mps 759 mmHg 62%
    02:00 0°C° 0 mm 3 mps 759 mmHg 65%
    03:00 0°C° 0 mm 3 mps 759 mmHg 67%
    04:00 0°C° 0 mm 3 mps 759 mmHg 69%
    05:00 0°C° 0 mm 3 mps 759 mmHg 71%
    06:00 0°C° 0 mm 3 mps 760 mmHg 73%
    07:00 +2°C° 0 mm 2 mps 760 mmHg 68%
    08:00 +3°C° 0 mm 2 mps 761 mmHg 64%
    09:00 +5°C° 0 mm 2 mps 761 mmHg 59%
    10:00 +7°C° 0 mm 2 mps 761 mmHg 52%
    11:00 +8°C° 0 mm 2 mps 761 mmHg 45%
    12:00 +10°C° 0 mm 2 mps 761 mmHg 38%
    13:00 +10°C° 0 mm 2 mps 761 mmHg 38%
    14:00 +12°C° 0 mm 2 mps 760 mmHg 38%
    15:00 +12°C° 0 mm 2 mps 760 mmHg 37%
    16:00 +10°C° 0 mm 2 mps 760 mmHg 43%
    17:00 +8°C° 0 mm 2 mps 760 mmHg 49%
    18:00 +7°C° 0 mm 2 mps 760 mmHg 54%
    19:00 +6°C° 0 mm 2 mps 760 mmHg 58%
    20:00 +5°C° 0 mm 2 mps 760 mmHg 62%
    21:00 +4°C° 0 mm 2 mps 761 mmHg 66%
    22:00 +4°C° 0 mm 2 mps 760 mmHg 67%
    23:00 +3°C° 0 mm 2 mps 760 mmHg 68%
    Show more